Kissimmee, FL

9:56 AM EST on November 17, 2019 (GMT -0500)
Kissimmee Municipal

Weather History for KISM - August, 2019

Change the Weather History Date:

Saturday, August 24, 2019

  Actual Average Record
Temperature  
Mean Temperature 84 °F -  
Max Temperature 93 °F 90 °F 96 °F (1983)
Min Temperature 78 °F 72 °F 67 °F (1984)
Cooling Degree Days 20    
Growing Degree Days 34 (Base 50)    
Moisture  
Dew Point 75 °F    
Average Humidity 76    
Maximum Humidity 96    
Minimum Humidity 55    
Precipitation  
Precipitation 0.00 in - - ()
Sea Level Pressure  
Sea Level Pressure 29.97 in    
Wind  
Wind Speed 5 mph (NE)    
Max Wind Speed 15 mph    
Max Gust Speed -    
Visibility 10 miles    
Events      
Averages and records for this station are not official NWS values.
T = Trace of Precipitation, MM = Missing Value Source: NWS Daily Summary

Daily Weather History Graph

Daily Weather History Graph

Search for Another Location

Airport or City:

Astronomy

Aug. 24, 2019 Rise Set
Actual Time 7:00 AM EDT 7:55 PM EDT
Civil Twilight 6:35 AM EDT 8:20 PM EDT
Nautical Twilight 6:07 AM EDT 8:48 PM EDT
Astronomical Twilight 5:37 AM EDT 9:17 PM EDT
Moon 1:02 AM EDT (8/24) 2:57 PM EDT (8/24)
Length of Visible Light 13h 44m
Length of Day
12h 55m
Last Quarter, 39% of the Moon is Illuminated
Aug 24
Last Quarter
Aug 30
New
Sep 5
First Quarter
Sep 14
Full
Sep 21
Last Quarter

Hourly Weather History & Observations

Time (EDT) Temp. Heat Index Dew Point Humidity Pressure Visibility Wind Dir Wind Speed Gust Speed Precip Events Conditions
12:56 AM 80.1 °F 85.8 °F 77.0 °F 90% 29.99 in 10.0 mi ENE 4.6 mph - N/A   Clear
1:56 AM 79.0 °F - 75.9 °F 90% 29.98 in 10.0 mi Calm Calm - N/A   Clear
2:56 AM 79.0 °F - 75.9 °F 90% 29.97 in 10.0 mi ENE 4.6 mph - N/A   Clear
3:56 AM 78.1 °F - 77.0 °F 96% 29.96 in 10.0 mi NE 3.5 mph - N/A   Clear
4:56 AM 78.1 °F - 77.0 °F 96% 29.95 in 10.0 mi NE 3.5 mph - N/A   Clear
5:56 AM 78.1 °F - 77.0 °F 96% 29.96 in 10.0 mi Calm Calm - N/A   Clear
6:56 AM 78.1 °F - 75.9 °F 93% 29.96 in 10.0 mi Calm Calm - N/A   Clear
7:56 AM 78.1 °F - 77.0 °F 96% 29.98 in 10.0 mi North 4.6 mph - N/A   Clear
8:56 AM 81.0 °F 87.9 °F 77.0 °F 88% 29.99 in 10.0 mi NNE 5.8 mph - N/A   Scattered Clouds
9:16 AM 82.4 °F 90.9 °F 77.0 °F 84% 29.99 in 10.0 mi NNE 4.6 mph - N/A   Mostly Cloudy
9:56 AM 82.9 °F 91.8 °F 77.0 °F 82% 30.01 in 10.0 mi NNE 4.6 mph - N/A   Mostly Cloudy
10:56 AM 87.1 °F 97.3 °F 75.9 °F 69% 30.01 in 10.0 mi NNE 6.9 mph - N/A   Mostly Cloudy
10:58 AM 86.0 °F 95.1 °F 75.2 °F 70% 30.00 in 10.0 mi NNE 4.6 mph - N/A   Mostly Cloudy
11:43 AM 87.8 °F 97.6 °F 75.2 °F 66% 29.99 in 10.0 mi NE 8.1 mph - N/A   Scattered Clouds
11:56 AM 88.0 °F 97.5 °F 75.0 °F 65% 29.99 in 10.0 mi Variable 5.8 mph - N/A   Partly Cloudy
12:56 PM 91.0 °F 100.4 °F 73.9 °F 57% 29.97 in 10.0 mi NE 9.2 mph - N/A   Partly Cloudy
1:56 PM 91.0 °F 100.4 °F 73.9 °F 57% 29.96 in 10.0 mi ENE 10.4 mph - N/A   Scattered Clouds
2:56 PM 91.0 °F 101.6 °F 75.0 °F 59% 29.95 in 10.0 mi East 9.2 mph - N/A   Overcast
3:56 PM 91.9 °F 101.3 °F 73.9 °F 55% 29.94 in 10.0 mi ENE 11.5 mph - N/A   Overcast
4:56 PM 90.0 °F 99.0 °F 73.9 °F 59% 29.92 in 10.0 mi ENE 15.0 mph - N/A   Mostly Cloudy
5:56 PM 90.0 °F 100.2 °F 75.0 °F 61% 29.92 in 10.0 mi ENE 11.5 mph - N/A   Partly Cloudy
6:37 PM 89.6 °F 96.2 °F 71.6 °F 55% 29.91 in 10.0 mi NE 9.2 mph - N/A   Scattered Clouds
6:56 PM 89.1 °F 98.0 °F 73.9 °F 61% 29.92 in 10.0 mi East 9.2 mph - N/A   Clear
7:56 PM 86.0 °F 93.8 °F 73.9 °F 67% 29.94 in 10.0 mi ENE 11.5 mph - N/A   Clear
8:56 PM 84.0 °F 91.9 °F 75.0 °F 74% 29.95 in 10.0 mi East 10.4 mph - N/A   Clear
9:56 PM 82.0 °F 88.6 °F 75.0 °F 79% 29.98 in 10.0 mi East 5.8 mph - N/A   Clear
10:56 PM 81.0 °F 86.7 °F 75.0 °F 82% 29.99 in 10.0 mi East 4.6 mph - N/A   Clear
11:56 PM 81.0 °F 86.7 °F 75.0 °F 82% 29.99 in 10.0 mi NE 4.6 mph - N/A   Clear